GW0125 Weather Reports


Display with metric or nautical units.
time (UTC)temp
F
wind
direction
speed
MPH
gust
MPH
rain 1hr
in
rain 24hr
in
rain mn
in
humidity
%
barometer
mb
20260906214041 87 214 3.0 18.0 0.00 0.00 0.00 37 1019.3
20260906213543 87 206 3.0 18.0 0.00 0.00 0.00 38 1019.4
20260906213100 87 178 2.0 15.0 0.00 0.00 0.00 39 1019.4
20260906212542 87 219 6.0 15.0 0.00 0.00 0.00 39 1019.4
20260906212044 87 200 3.0 16.0 0.00 0.00 0.00 39 1019.7
20260906211602 87 211 4.0 16.0 0.00 0.00 0.00 39 1019.6
20260906211039 87 192 2.0 14.0 0.00 0.00 0.00 40 1019.7
20260906210539 87 128 4.0 14.0 0.00 0.00 0.00 40 1019.6
20260906210112 86 0 3.0 11.0 0.00 0.00 0.00 41 1019.7
20260906205542 87 155 3.0 15.0 0.00 0.00 0.00 41 1019.8
20260906205042 87 215 3.0 15.0 0.00 0.00 0.00 40 1019.8
20260906204604 87 119 4.0 11.0 0.00 0.00 0.00 41 1019.8
20260906204040 87 156 2.0 10.0 0.00 0.00 0.00 40 1019.9
20260906203540 87 202 3.0 10.0 0.00 0.00 0.00 39 1020.0
20260906203054 87 130 2.0 14.0 0.00 0.00 0.00 39 1020.1
20260906202541 88 129 3.0 14.0 0.00 0.00 0.00 38 1020.2
20260906202041 88 196 3.0 13.0 0.00 0.00 0.00 38 1020.5
20260906201552 88 212 2.0 12.0 0.00 0.00 0.00 39 1020.3
20260906201040 88 230 4.0 13.0 0.00 0.00 0.00 39 1020.4
20260906200539 88 142 3.0 13.0 0.00 0.00 0.00 39 1020.5
20260906200053 88 179 3.0 10.0 0.00 0.00 0.00 38 1020.4
20260906195544 88 168 2.0 10.0 0.00 0.00 0.00 38 1020.5
20260906195043 89 183 4.0 12.0 0.00 0.00 0.00 38 1020.5
20260906194619 89 201 3.0 12.0 0.00 0.00 0.00 37 1020.5
20260906194040 89 196 2.0 12.0 0.00 0.00 0.00 37 1020.7
20260906193541 89 228 7.0 12.0 0.00 0.00 0.00 37 1020.6
20260906193104 89 241 5.0 14.0 0.00 0.00 0.00 36 1020.7
20260906192540 89 230 6.0 14.0 0.00 0.00 0.00 37 1020.9
20260906192039 88 188 2.0 13.0 0.00 0.00 0.00 38 1020.9
20260906191551 89 248 3.0 12.0 0.00 0.00 0.00 37 1020.9
20260906191038 88 205 2.0 13.0 0.00 0.00 0.00 37 1021.0
20260906190539 88 238 3.0 13.0 0.00 0.00 0.00 37 1021.0
20260906190059 88 240 4.0 13.0 0.00 0.00 0.00 37 1020.9
20260906185542 88 192 5.0 13.0 0.00 0.00 0.00 38 1021.1
20260906185046 88 114 3.0 8.0 0.00 0.00 0.00 38 1021.2
20260906184607 88 184 2.0 10.0 0.00 0.00 0.00 39 1021.4
20260906184043 88 133 2.0 10.0 0.00 0.00 0.00 38 1021.5
20260906183541 88 207 5.0 10.0 0.00 0.00 0.00 39 1021.5
20260906183102 87 220 4.0 10.0 0.00 0.00 0.00 38 1021.6
20260906182539 87 197 3.0 10.0 0.00 0.00 0.00 39 1021.8
20260906182039 87 177 3.0 10.0 0.00 0.00 0.00 39 1021.9
20260906181552 86 221 4.0 11.0 0.00 0.00 0.00 40 1022.0
20260906181045 86 217 3.0 11.0 0.00 0.00 0.00 40 1022.1
20260906180546 86 194 3.0 13.0 0.00 0.00 0.00 40 1022.1
20260906180058 86 236 4.0 13.0 0.00 0.00 0.00 39 1022.2
20260906175543 85 200 5.0 12.0 0.00 0.00 0.00 40 1022.4
20260906175044 85 232 2.0 10.0 0.00 0.00 0.00 41 1022.4
20260906174554 85 211 4.0 10.0 0.00 0.00 0.00 40 1022.4
20260906174042 84 195 2.0 8.0 0.00 0.00 0.00 41 1022.5
20260906173543 84 195 3.0 8.0 0.00 0.00 0.00 41 1022.6
20260906173053 84 226 3.0 8.0 0.00 0.00 0.00 40 1022.7
20260906172544 84 0 2.0 8.0 0.00 0.00 0.00 41 1022.8
20260906172046 83 203 2.0 7.0 0.00 0.00 0.00 42 1022.7
20260906171607 83 188 2.0 6.0 0.00 0.00 0.00 41 1022.7
20260906171041 82 193 1.0 8.0 0.00 0.00 0.00 40 1022.9
20260906170541 82 193 1.0 8.0 0.00 0.00 0.00 39 1023.0
20260906170055 82 199 3.0 7.0 0.00 0.00 0.00 40 1022.9
20260906165542 82 0 1.0 9.0 0.00 0.00 0.00 40 1023.0
20260906165041 82 191 1.0 9.0 0.00 0.00 0.00 42 1022.9
20260906164558 81 202 1.0 5.0 0.00 0.00 0.00 40 1022.9
20260906164041 81 202 2.0 9.0 0.00 0.00 0.00 41 1022.9
20260906163541 80 202 1.0 9.0 0.00 0.00 0.00 40 1022.9
20260906163054 80 205 3.0 9.0 0.00 0.00 0.00 39 1023.0
20260906162543 80 199 2.0 8.0 0.00 0.00 0.00 40 1022.9
20260906162047 80 209 4.0 7.0 0.00 0.00 0.00 39 1022.9
20260906161603 80 0 1.0 6.0 0.00 0.00 0.00 40 1023.0
20260906161042 81 118 1.0 6.0 0.00 0.00 0.00 40 1022.9
20260906160543 81 118 1.0 7.0 0.00 0.00 0.00 40 1022.9
20260906160059 80 0 1.0 7.0 0.00 0.00 0.00 40 1022.8
20260906155539 80 0 2.0 7.0 0.00 0.00 0.00 40 1022.9
20260906155045 79 0 0.0 4.0 0.00 0.00 0.00 40 1022.8
20260906154553 79 26 0.0 4.0 0.00 0.00 0.00 40 1022.8
20260906154103 79 0 1.0 5.0 0.00 0.00 0.00 40 1022.7
20260906153539 78 26 1.0 5.0 0.00 0.00 0.00 43 1022.7
20260906153101 78 17 1.0 6.0 0.00 0.00 0.00 42 1022.6
20260906152539 78 17 0.0 7.0 0.00 0.00 0.00 42 1022.6
20260906152039 77 0 2.0 7.0 0.00 0.00 0.00 42 1022.6
20260906151558 77 0 0.0 4.0 0.00 0.00 0.00 45 1022.7
20260906151038 76 0 0.0 3.0 0.00 0.00 0.00 47 1022.7
20260906150542 74 0 0.0 3.0 0.00 0.00 0.00 46 1022.6
20260906145539 73 11 0.0 4.0 0.00 0.00 0.00 49 1022.6
20260906145039 72 10 0.0 3.0 0.00 0.00 0.00 50 1022.5
20260906144621 71 11 0.0 3.0 0.00 0.00 0.00 51 1022.6
20260906144039 70 11 1.0 3.0 0.00 0.00 0.00 54 1022.6
20260906143539 69 360 0.0 2.0 0.00 0.00 0.00 56 1022.6
20260906143102 67 0 0.0 4.0 0.00 0.00 0.00 59 1022.6
20260906142540 67 5 0.0 4.0 0.00 0.00 0.00 58 1022.4
20260906142041 66 5 1.0 5.0 0.00 0.00 0.00 59 1022.4
20260906141604 65 360 1.0 5.0 0.00 0.00 0.00 59 1022.4
20260906141042 64 360 1.0 6.0 0.00 0.00 0.00 61 1022.4
20260906140542 63 0 1.0 6.0 0.00 0.00 0.00 63 1022.5
20260906140055 62 360 0.0 4.0 0.00 0.00 0.00 68 1022.6
20260906135540 62 0 0.0 1.0 0.00 0.00 0.00 71 1022.5
20260906135040 61 0 0.0 0.0 0.00 0.00 0.00 72 1022.4
20260906134601 60 0 0.0 2.0 0.00 0.00 0.00 72 1022.3
20260906134043 60 0 0.0 2.0 0.00 0.00 0.00 72 1022.3
20260906133538 59 286 0.0 3.0 0.00 0.00 0.00 73 1022.2
20260906133056 59 286 0.0 3.0 0.00 0.00 0.00 74 1022.3
20260906132541 59 0 0.0 2.0 0.00 0.00 0.00 73 1022.2
20260906132046 58 0 1.0 2.0 0.00 0.00 0.00 73 1022.1
20260906131556 58 0 0.0 2.0 0.00 0.00 0.00 72 1022.2
20260906131039 58 0 0.0 1.0 0.00 0.00 0.00 72 1022.1
20260906130539 58 0 0.0 1.0 0.00 0.00 0.00 72 1022.2
20260906130053 58 0 0.0 0.0 0.00 0.00 0.00 71 1022.2
20260906125541 58 0 0.0 0.0 0.00 0.00 0.00 71 1022.1
20260906125042 58 0 0.0 2.0 0.00 0.00 0.00 71 1022.2
20260906124552 58 0 0.0 2.0 0.00 0.00 0.00 70 1022.1
20260906124041 59 0 0.0 2.0 0.00 0.00 0.00 70 1022.0
20260906123539 59 286 0.0 2.0 0.00 0.00 0.00 70 1022.0
20260906123056 59 0 0.0 1.0 0.00 0.00 0.00 70 1022.0
20260906122542 59 0 0.0 2.0 0.00 0.00 0.00 70 1022.0
20260906122042 59 0 0.0 2.0 0.00 0.00 0.00 70 1022.0
20260906121553 59 0 0.0 3.0 0.00 0.00 0.00 70 1021.8
20260906121040 59 286 0.0 3.0 0.00 0.00 0.00 70 1021.8
20260906120542 59 286 0.0 2.0 0.00 0.00 0.00 70 1021.9
20260906120053 59 0 0.0 3.0 0.00 0.00 0.00 69 1021.8
20260906115539 59 284 0.0 3.0 0.00 0.00 0.00 70 1021.8
20260906115038 60 0 0.0 3.0 0.00 0.00 0.00 70 1021.7
20260906114553 60 0 0.0 3.0 0.00 0.00 0.00 69 1021.7
20260906114042 60 0 0.0 2.0 0.00 0.00 0.00 69 1021.7
20260906113541 60 0 0.0 0.0 0.00 0.00 0.00 69 1021.7
20260906113101 60 0 0.0 0.0 0.00 0.00 0.00 69 1021.7
20260906112542 60 0 0.0 0.0 0.00 0.00 0.00 70 1021.6
20260906112042 60 0 0.0 1.0 0.00 0.00 0.00 70 1021.5
20260906111552 60 0 0.0 1.0 0.00 0.00 0.00 69 1021.5
20260906111043 60 0 0.0 1.0 0.00 0.00 0.00 69 1021.5
20260906110542 61 0 0.0 1.0 0.00 0.00 0.00 69 1021.3
20260906110047 61 0 0.0 0.0 0.00 0.00 0.00 69 1021.5
20260906105539 61 0 0.0 0.0 0.00 0.00 0.00 70 1021.3
20260906105039 61 0 0.0 0.0 0.00 0.00 0.00 70 1021.2
20260906104616 61 0 0.0 0.0 0.00 0.00 0.00 71 1021.3
20260906104038 61 0 0.0 2.0 0.00 0.00 0.00 71 1021.4
20260906103539 61 0 0.0 5.0 0.00 0.00 0.00 72 1021.4
20260906103055 61 360 1.0 5.0 0.00 0.00 0.00 72 1021.5
20260906102542 61 360 2.0 4.0 0.00 0.00 0.00 73 1021.5
20260906102039 61 360 1.0 4.0 0.00 0.00 0.00 73 1021.6
20260906101554 61 360 1.0 4.0 0.00 0.00 0.00 73 1021.7
20260906101044 61 0 0.0 1.0 0.00 0.00 0.00 73 1021.8
20260906100539 61 0 0.0 0.0 0.00 0.00 0.00 73 1021.8
20260906100058 61 0 0.0 1.0 0.00 0.00 0.00 73 1021.9
20260906095538 61 0 0.0 2.0 0.00 0.00 0.00 72 1021.7
20260906095039 61 0 0.0 4.0 0.00 0.00 0.00 72 1021.8
20260906094637 61 0 0.0 4.0 0.00 0.00 0.00 73 1021.7
20260906094042 61 227 0.0 2.0 0.00 0.00 0.00 73 1021.8
20260906093539 61 0 0.0 0.0 0.00 0.00 0.00 73 1021.7
20260906093105 61 0 0.0 0.0 0.00 0.00 0.00 72 1021.6
20260906092543 61 0 0.0 1.0 0.00 0.00 0.00 72 1021.5
20260906092039 61 0 0.0 2.0 0.00 0.00 0.00 72 1021.5
20260906091551 61 0 0.0 2.0 0.00 0.00 0.00 71 1021.6
20260906091042 61 0 0.0 2.0 0.00 0.00 0.00 71 1021.5
20260906090538 62 0 0.0 0.0 0.00 0.00 0.00 71 1021.4
20260906090100 62 0 0.0 0.0 0.00 0.00 0.00 71 1021.3
20260906085539 62 0 0.0 0.0 0.00 0.00 0.00 71 1021.4
20260906085038 62 0 0.0 0.0 0.00 0.00 0.00 71 1021.5
20260906084556 62 0 0.0 2.0 0.00 0.00 0.00 72 1021.5
20260906084039 62 0 0.0 2.0 0.00 0.00 0.00 71 1021.4
20260906083539 62 0 0.0 2.0 0.00 0.00 0.00 72 1021.4
20260906083054 63 227 0.0 2.0 0.00 0.00 0.00 72 1021.4
20260906082538 63 0 0.0 0.0 0.00 0.00 0.00 73 1021.7
20260906082043 63 0 0.0 0.0 0.00 0.00 0.00 73 1021.5
20260906081555 63 0 0.0 3.0 0.00 0.00 0.00 73 1021.6
20260906081039 63 0 0.0 3.0 0.00 0.00 0.00 73 1021.6
20260906080542 63 226 0.0 3.0 0.00 0.00 0.00 74 1021.6
20260906080059 63 0 0.0 4.0 0.00 0.00 0.00 74 1021.7
20260906075541 63 0 0.0 4.0 0.00 0.00 0.00 74 1021.6
20260906075039 63 219 0.0 2.0 0.00 0.00 0.00 74 1021.7
20260906074556 63 0 0.0 1.0 0.00 0.00 0.00 74 1021.8
20260906074038 63 126 0.0 1.0 0.00 0.00 0.00 74 1021.9
20260906073539 63 0 0.0 3.0 0.00 0.00 0.00 74 1021.8
20260906073058 63 0 0.0 4.0 0.00 0.00 0.00 74 1021.7
20260906072539 63 126 1.0 4.0 0.00 0.00 0.00 74 1021.7
20260906072038 63 126 0.0 4.0 0.00 0.00 0.00 75 1021.9
20260906071552 63 0 1.0 4.0 0.00 0.00 0.00 75 1022.0
20260906071046 63 0 2.0 4.0 0.00 0.00 0.00 75 1022.0
20260906070538 62 126 1.0 4.0 0.00 0.00 0.00 75 1022.1
20260906070057 62 0 1.0 6.0 0.00 0.00 0.00 75 1022.2
20260906065539 62 124 2.0 6.0 0.00 0.00 0.00 75 1022.1
20260906065038 62 123 1.0 2.0 0.00 0.00 0.00 74 1022.2
20260906064554 62 0 0.0 2.0 0.00 0.00 0.00 74 1022.2
20260906064038 63 0 0.0 2.0 0.00 0.00 0.00 74 1022.3
20260906063538 63 0 0.0 2.0 0.00 0.00 0.00 73 1022.2
20260906063057 63 0 0.0 2.0 0.00 0.00 0.00 73 1022.4
20260906062543 63 0 0.0 2.0 0.00 0.00 0.00 73 1022.2
20260906062044 63 0 0.0 2.0 0.00 0.00 0.00 73 1022.1
20260906061556 63 0 0.0 0.0 0.00 0.00 0.00 72 1022.1
20260906061042 63 0 0.0 0.0 0.00 0.00 0.00 72 1022.1
20260906060542 63 0 0.0 3.0 0.00 0.00 0.00 71 1022.0
20260906060054 64 0 1.0 3.0 0.00 0.00 0.00 71 1021.9
20260906055544 64 0 0.0 1.0 0.00 0.00 0.00 70 1021.8
20260906055043 64 0 0.0 1.0 0.00 0.00 0.00 70 1022.0
20260906054551 64 0 0.0 2.0 0.00 0.00 0.00 70 1021.7
20260906054044 64 0 0.0 3.0 0.00 0.00 0.00 70 1021.6
20260906053542 64 124 1.0 3.0 0.00 0.00 0.00 70 1021.6
20260906053055 65 123 1.0 3.0 0.00 0.00 0.00 69 1021.7
20260906052545 65 0 0.0 0.0 0.00 0.00 0.00 69 1021.8
20260906052044 65 0 0.0 2.0 0.00 0.00 0.00 69 1021.7
20260906051555 65 0 0.0 2.0 0.00 0.00 0.00 68 1021.7
20260906051047 65 123 0.0 2.0 0.00 0.00 0.00 68 1021.7
20260906050545 66 0 0.0 2.0 0.00 0.00 0.00 68 1021.8
20260906050112 66 0 0.0 1.0 0.00 0.00 0.00 67 1021.8
20260906045543 66 0 0.0 1.0 0.00 0.00 0.00 67 1021.8
20260906045043 66 0 0.0 1.0 0.00 0.00 0.00 66 1021.9
20260906044559 66 0 0.0 1.0 0.00 0.00 0.00 66 1022.0
20260906044044 67 0 0.0 1.0 0.00 0.00 0.00 65 1022.0
20260906043543 67 0 0.0 1.0 0.00 0.00 0.00 65 1022.1
20260906043057 67 0 0.0 1.0 0.00 0.00 0.00 65 1022.1
20260906042542 67 0 0.0 1.0 0.00 0.00 0.00 64 1022.2
20260906042042 68 0 0.0 0.0 0.00 0.00 0.00 63 1022.2
20260906041554 68 0 0.0 2.0 0.00 0.00 0.00 63 1022.2
20260906041043 68 0 0.0 2.0 0.00 0.00 0.00 62 1022.0
20260906040544 68 124 0.0 1.0 0.00 0.00 0.00 61 1021.8
20260906040107 68 0 0.0 2.0 0.00 0.00 0.00 61 1021.9
20260906035544 69 0 0.0 2.0 0.00 0.00 0.00 60 1022.1
20260906035044 69 124 0.0 2.0 0.00 0.00 0.00 59 1022.0
20260906034605 69 0 0.0 1.0 0.00 0.00 0.00 57 1022.2
20260906034043 69 0 0.0 1.0 0.00 0.00 0.00 56 1022.1
20260906033543 70 0 0.0 1.0 0.00 0.00 0.00 54 1022.0
20260906033058 70 0 0.0 2.0 0.00 0.00 0.00 54 1022.2
20260906032541 70 0 0.0 2.0 0.00 0.00 0.00 52 1022.1
20260906032042 70 123 1.0 2.0 0.00 0.00 0.00 51 1022.2
20260906031552 70 0 0.0 3.0 0.00 0.00 0.00 50 1022.0
20260906031042 70 0 0.0 3.0 0.00 0.00 0.00 49 1022.1
20260906030542 70 124 1.0 2.0 0.00 0.00 0.00 49 1022.0
20260906030056 71 0 0.0 3.0 0.00 0.00 0.00 49 1022.0
20260906025542 71 0 1.0 3.0 0.00 0.00 0.00 49 1021.7
20260906025043 71 124 1.0 3.0 0.00 0.00 0.00 49 1021.7
20260906024552 71 123 0.0 4.0 0.00 0.00 0.00 48 1021.7
20260906024045 71 123 0.0 4.0 0.00 0.00 0.00 48 1021.7
20260906023543 71 0 0.0 13.0 0.00 0.00 0.00 48 1021.7
20260906023055 71 0 0.0 13.0 0.00 0.00 0.00 46 1021.6
20260906022542 71 123 2.0 13.0 0.00 0.00 0.00 45 1021.4
20260906022046 72 325 0.0 2.0 0.00 0.00 0.00 45 1021.1
20260906021605 72 0 0.0 2.0 0.00 0.00 0.00 44 1020.8
20260906021041 73 325 0.0 2.0 0.00 0.00 0.00 43 1020.5
20260906020544 73 325 0.0 2.0 0.00 0.00 0.00 43 1020.4
20260906020107 74 0 0.0 1.0 0.00 0.00 0.00 43 1020.4
20260906015543 75 0 0.0 1.0 0.00 0.00 0.00 42 1020.5
20260906015042 75 0 0.0 1.0 0.00 0.00 0.00 42 1020.5
20260906014558 76 0 0.0 1.0 0.00 0.00 0.00 42 1020.5
20260906014043 76 0 0.0 0.0 0.00 0.00 0.00 41 1020.5
20260906013542 77 0 0.0 0.0 0.00 0.00 0.00 41 1020.4
20260906013058 77 0 0.0 1.0 0.00 0.00 0.00 40 1020.3
20260906012541 78 0 0.0 1.0 0.00 0.00 0.00 40 1020.3
20260906012041 78 0 0.0 1.0 0.00 0.00 0.00 39 1020.3
20260906011557 79 0 0.0 2.0 0.00 0.00 0.00 38 1020.3
20260906011046 79 0 0.0 2.0 0.00 0.00 0.00 38 1020.3
20260906010543 80 325 0.0 2.0 0.00 0.00 0.00 38 1020.2
20260906010106 80 0 0.0 2.0 0.00 0.00 0.00 37 1020.3
20260906005543 80 0 0.0 2.0 0.00 0.00 0.00 37 1020.3
20260906005043 81 49 0.0 1.0 0.00 0.00 0.00 38 1020.4
20260906004605 81 0 0.0 2.0 0.00 0.00 0.00 38 1020.5
20260906004042 81 0 0.0 2.0 0.00 0.00 0.00 37 1020.5
20260906003543 81 0 0.0 3.0 0.00 0.00 0.00 35 1020.5
20260906003101 81 45 0.0 3.0 0.00 0.00 0.00 35 1020.5
20260906002543 82 45 0.0 2.0 0.00 0.00 0.00 36 1020.5
20260906002043 82 45 0.0 2.0 0.00 0.00 0.00 35 1020.5
20260906001606 82 45 0.0 2.0 0.00 0.00 0.00 35 1020.5
20260906001042 82 0 0.0 2.0 0.00 0.00 0.00 35 1020.5
20260906000543 82 0 0.0 2.0 0.00 0.00 0.00 37 1020.5
20260906000057 82 0 0.0 2.0 0.00 0.00 0.00 35 1020.7
20260905235543 82 0 1.0 2.0 0.00 0.00 0.00 34 1020.5
20260905235043 82 0 0.0 4.0 0.00 0.00 0.00 36 1020.5
20260905234600 82 0 1.0 4.0 0.00 0.00 0.00 34 1020.4
20260905234044 82 45 0.0 4.0 0.00 0.00 0.00 33 1020.5
20260905233543 83 45 2.0 3.0 0.00 0.00 0.00 34 1020.5
20260905233112 83 45 0.0 3.0 0.00 0.00 0.00 35 1020.4
20260905232542 83 0 0.0 4.0 0.00 0.00 0.00 35 1020.4
20260905232042 83 0 1.0 4.0 0.00 0.00 0.00 34 1020.4
20260905231600 83 45 0.0 7.0 0.00 0.00 0.00 34 1020.4
20260905231045 83 45 2.0 7.0 0.00 0.00 0.00 34 1020.4
20260905230541 83 45 1.0 5.0 0.00 0.00 0.00 34 1020.3
20260905230059 82 0 0.0 6.0 0.00 0.00 0.00 36 1020.4
20260905225543 82 45 2.0 6.0 0.00 0.00 0.00 34 1020.5
20260905225043 82 44 2.0 6.0 0.00 0.00 0.00 35 1020.5
20260905224600 82 44 1.0 6.0 0.00 0.00 0.00 35 1020.6
20260905224045 82 44 2.0 6.0 0.00 0.00 0.00 35 1020.7
20260905223541 82 44 2.0 9.0 0.00 0.00 0.00 35 1020.7
20260905223055 82 0 3.0 9.0 0.00 0.00 0.00 35 1020.7
20260905222543 82 44 3.0 8.0 0.00 0.00 0.00 36 1020.8
20260905222042 81 44 4.0 8.0 0.00 0.00 0.00 36 1020.6
20260905221603 81 23 3.0 8.0 0.00 0.00 0.00 36 1020.8
20260905221042 81 22 3.0 8.0 0.00 0.00 0.00 36 1020.7
20260905220544 81 360 3.0 9.0 0.00 0.00 0.00 36 1020.7
20260905215543 81 355 2.0 6.0 0.00 0.00 0.00 35 1021.0
20260905215043 81 336 2.0 6.0 0.00 0.00 0.00 35 1021.0
20260905214554 81 314 3.0 6.0 0.00 0.00 0.00 35 1020.9